Weather reports worldwide

Advertisment
Javea, Spain (8370): temperature & dewpoint: 23.09.2020 03:00:00 - 29.09.2020 03:00:00 (CEST)Javea, Spain (8370): wind speed & gusts: 23.09.2020 03:00:00 - 29.09.2020 03:00:00 (CEST)Javea, Spain (8370): wind direction: 23.09.2020 03:00:00 - 29.09.2020 03:00:00 (CEST)Javea, Spain (8370): reduced air pressure: 23.09.2020 03:00:00 - 29.09.2020 03:00:00 (CEST)Javea, Spain (8370): visibility: 23.09.2020 03:00:00 - 29.09.2020 03:00:00 (CEST)Javea, Spain (8370): sunshine duration: 23.09.2020 03:00:00 - 29.09.2020 03:00:00 (CEST)Javea, Spain (8370): precipitation: 23.09.2020 03:00:00 - 29.09.2020 03:00:00 (CEST)
Date & Time tt [°C] td [°C] ff [km/h] ff [kn] fx [km/h] fx [kn] dd ppp [hPa] vv [km] sd [min] rr [mm]
29.09.2020 03:00:00 - - - - - - - - - - -
29.09.2020 02:00:00 15,2 12,5 8 4 10 6 WSW 1019,1 20 0 -
29.09.2020 01:00:00 - - - - - - - - - - -
29.09.2020 00:00:00 16,3 13,1 6 4 10 6 WSW 1018,9 20 0 0,0
28.09.2020 23:00:00 16,0 12,3 4 2 7 4 WSW 1018,6 20 0 0,0
28.09.2020 22:00:00 18,1 12,3 4 2 11 6 W 1018,1 20 0 0,0
28.09.2020 21:00:00 - - - - - - - - - - -
28.09.2020 20:00:00 21,1 12,5 8 4 17 9 SSW 1016,9 20 4 -
28.09.2020 19:00:00 - - - - - - - - - - -
28.09.2020 18:00:00 - - - - - - - - - - -
28.09.2020 17:00:00 26,2 10,8 12 7 26 14 SSE 1016,2 20 60 0,0
28.09.2020 16:00:00 - - - - - - - - - - -
28.09.2020 15:00:00 - - - - - - - - - - -
28.09.2020 14:00:00 24,6 6,4 9 5 19 10 ENE 1017,3 20 60 -
28.09.2020 13:00:00 - - - - - - - - - - -
28.09.2020 12:00:00 - - - - - - - - - - -
28.09.2020 11:00:00 23,5 4,5 11 6 30 16 NNW 1017,2 20 60 0,0
28.09.2020 10:00:00 21,5 2,7 13 7 27 14 NNW 1016,9 20 60 0,0
28.09.2020 09:00:00 15,7 5,9 10 5 17 9 WSW 1016,4 20 17 0,0
28.09.2020 08:00:00 13,8 5,5 8 4 15 8 WSW 1015,8 20 0 -
28.09.2020 07:00:00 - - - - - - - - - - -
28.09.2020 06:00:00 - - - - - - - - - - -
28.09.2020 05:00:00 - - - - - - - - - - -
28.09.2020 04:00:00 15,0 6,2 8 4 16 9 W 1014,9 20 0 0,0
28.09.2020 03:00:00 - - - - - - - - - - -
28.09.2020 02:00:00 13,9 7,4 8 4 13 7 WSW 1015,3 20 0 -
28.09.2020 01:00:00 15,2 8,3 7 4 13 7 WSW 1015,3 20 0 0,0
28.09.2020 00:00:00 16,8 8,3 6 4 12 7 W 1015,1 20 0 0,0
27.09.2020 23:00:00 17,6 8,1 6 3 16 8 WSW 1014,8 20 0 0,0
27.09.2020 22:00:00 - - - - - - - - - - -
27.09.2020 21:00:00 18,7 7,7 5 3 15 8 WSW 1014,1 20 0 0,0
27.09.2020 20:00:00 19,9 7,3 7 4 20 11 SW 1013,6 20 5 -
27.09.2020 19:00:00 - - - - - - - - - - -
27.09.2020 18:00:00 - - - - - - - - - - -
27.09.2020 17:00:00 23,5 6,2 11 6 26 14 ENE 1012,9 20 60 0,0
27.09.2020 16:00:00 23,1 6,4 13 7 26 14 ENE 1013,1 20 60 0,0
27.09.2020 15:00:00 - - - - - - - - - - -
27.09.2020 14:00:00 23,0 5,5 15 8 36 19 ENE 1013,8 20 60 -
27.09.2020 13:00:00 22,9 4,5 17 9 42 23 NE 1013,6 20 60 0,0
27.09.2020 12:00:00 23,9 5,8 20 11 47 25 NNE 1013,3 20 60 0,0
27.09.2020 11:00:00 - - - - - - - - - - -
27.09.2020 10:00:00 - - - - - - - - - - -
27.09.2020 09:00:00 22,3 6,8 16 9 39 21 WNW 1009,6 20 17 0,0
27.09.2020 08:00:00 21,7 6,4 24 13 48 26 WNW 1009,7 20 0 -
27.09.2020 07:00:00 - - - - - - - - - - -
27.09.2020 06:00:00 22,4 5,3 27 15 56 30 WNW 1008,6 20 0 0,0
27.09.2020 05:00:00 - - - - - - - - - - -
27.09.2020 04:00:00 22,8 3,8 24 13 44 24 WNW 1008,3 20 0 0,0
27.09.2020 03:00:00 - - - - - - - - - - -
27.09.2020 02:00:00 22,0 3,6 16 8 32 17 W 1009,8 20 0 -
27.09.2020 01:00:00 17,0 5,3 9 5 15 8 WSW 1010,9 20 0 0,0
27.09.2020 00:00:00 16,7 5,9 9 5 14 8 WSW 1011,5 20 0 0,0
26.09.2020 23:00:00 - - - - - - - - - - -
26.09.2020 22:00:00 17,9 5,8 6 4 15 8 SW 1012,7 20 0 0,0
26.09.2020 21:00:00 19,1 5,1 6 4 15 8 SSW 1013,3 20 0 0,0
26.09.2020 20:00:00 20,7 5,9 10 5 24 13 SW 1013,3 20 7 -
26.09.2020 19:00:00 22,2 5,1 12 7 34 18 SSW 1013,5 20 44 0,0
26.09.2020 18:00:00 - - - - - - - - - - -
26.09.2020 17:00:00 25,7 3,0 14 7 26 14 S 1014,5 20 60 0,0
26.09.2020 16:00:00 26,6 4,3 12 6 27 15 S 1015,1 20 60 0,0
26.09.2020 15:00:00 - - - - - - - - - - -
26.09.2020 14:00:00 24,9 2,9 14 8 31 17 N 1017,0 20 60 -
26.09.2020 13:00:00 24,0 1,5 18 10 41 22 NNW 1017,9 20 60 0,0
26.09.2020 12:00:00 23,4 1,7 16 9 37 20 NNW 1018,8 20 60 0,0
26.09.2020 11:00:00 - - - - - - - - - - -
26.09.2020 10:00:00 - - - - - - - - - - -
26.09.2020 09:00:00 18,9 0,4 13 7 31 17 WNW 1018,5 20 25 0,0
26.09.2020 08:00:00 17,7 0,0 12 6 24 13 WNW 1018,3 20 0 -
26.09.2020 07:00:00 18,3 0,4 14 8 29 15 W 1018,6 20 0 0,0
26.09.2020 06:00:00 19,0 0,6 16 9 36 19 W 1018,6 20 0 0,0
26.09.2020 05:00:00 19,5 1,1 23 12 40 21 WNW 1018,3 20 0 0,0
26.09.2020 04:00:00 19,8 -0,3 18 10 35 19 WNW 1018,9 20 0 0,0
26.09.2020 03:00:00 20,3 -0,5 14 8 32 18 WNW 1019,4 20 0 0,0
26.09.2020 02:00:00 20,4 -0,3 11 6 26 14 NW 1019,8 20 0 -
26.09.2020 01:00:00 21,1 -1,0 10 6 29 16 W 1020,2 20 0 0,0
26.09.2020 00:00:00 21,7 0,2 12 7 35 19 WNW 1020,2 20 0 0,0
25.09.2020 23:00:00 - - - - - - - - - - -
25.09.2020 22:00:00 - - - - - - - - - - -
25.09.2020 21:00:00 20,8 3,0 7 4 13 7 W 1018,8 20 0 0,0
25.09.2020 20:00:00 22,1 2,3 7 4 14 8 NW 1017,7 20 8 -
25.09.2020 19:00:00 - - - - - - - - - - -
25.09.2020 18:00:00 - - - - - - - - - - -
25.09.2020 17:00:00 - - - - - - - - - - -
25.09.2020 16:00:00 - - - - - - - - - - -
25.09.2020 15:00:00 - - - - - - - - - - -
25.09.2020 14:00:00 28,0 3,6 15 8 40 22 WNW 1016,8 20 60 -
25.09.2020 13:00:00 - - - - - - - - - - -
25.09.2020 12:00:00 - - - - - - - - - - -
25.09.2020 11:00:00 22,5 5,0 16 8 45 24 WNW 1016,9 20 12 0,0
25.09.2020 10:00:00 22,0 6,7 19 11 36 19 WNW 1016,0 20 0 0,0
25.09.2020 09:00:00 - - - - - - - - - - -
25.09.2020 08:00:00 21,5 9,4 11 6 21 12 W 1014,2 20 0 -
25.09.2020 07:00:00 22,4 10,2 12 6 27 14 W 1014,0 20 0 0,0
25.09.2020 06:00:00 - - - - - - - - - - -
25.09.2020 05:00:00 23,8 11,1 9 5 27 15 W 1013,7 20 0 0,0
25.09.2020 04:00:00 - - - - - - - - - - -
25.09.2020 03:00:00 - - - - - - - - - - -
25.09.2020 02:00:00 25,6 11,8 10 5 32 17 WNW 1013,9 20 0 -
25.09.2020 01:00:00 26,4 12,1 9 5 22 12 WNW 1014,1 20 0 0,0
25.09.2020 00:00:00 27,2 11,7 6 3 22 12 WNW 1014,1 20 0 0,0
24.09.2020 23:00:00 - - - - - - - - - - -
24.09.2020 22:00:00 - - - - - - - - - - -
24.09.2020 21:00:00 - - - - - - - - - - -
24.09.2020 20:00:00 26,8 15,2 8 4 13 7 S 1012,3 20 0 -
24.09.2020 19:00:00 - - - - - - - - - - -
24.09.2020 18:00:00 30,1 12,5 17 9 37 20 SSW 1011,7 20 60 0,0
24.09.2020 17:00:00 31,8 12,1 16 9 29 15 S 1011,9 20 45 0,0
24.09.2020 16:00:00 - - - - - - - - - - -
24.09.2020 15:00:00 32,4 13,1 14 7 37 20 S 1012,5 20 58 0,0
24.09.2020 14:00:00 30,7 13,9 13 7 26 14 S 1013,5 20 22 -
24.09.2020 13:00:00 30,1 15,0 11 6 21 12 ENE 1014,3 20 57 0,0
24.09.2020 12:00:00 30,3 13,2 10 6 21 12 NNE 1014,5 20 60 0,0
24.09.2020 11:00:00 29,5 12,4 13 7 28 15 WNW 1014,7 20 60 0,0
24.09.2020 10:00:00 26,9 13,0 6 3 17 9 SW 1014,6 20 59 0,0
24.09.2020 09:00:00 24,2 12,5 9 5 16 9 WSW 1014,3 20 28 0,0
24.09.2020 08:00:00 21,7 11,4 6 3 18 10 W 1014,0 20 0 -
24.09.2020 07:00:00 20,4 11,3 4 2 11 6 NNW 1013,5 20 0 0,0
24.09.2020 06:00:00 - - - - - - - - - - -
24.09.2020 05:00:00 21,1 11,1 10 5 13 7 SW 1013,3 20 0 0,0
24.09.2020 04:00:00 - - - - - - - - - - -
24.09.2020 03:00:00 21,4 13,4 9 5 15 8 WSW 1013,5 20 0 0,0
24.09.2020 02:00:00 21,8 13,5 11 6 17 9 WSW 1013,4 20 0 -
24.09.2020 01:00:00 22,2 13,6 9 5 15 8 WNW 1013,3 20 0 0,0
24.09.2020 00:00:00 - - - - - - - - - - -
23.09.2020 23:00:00 - - - - - - - - - - -
23.09.2020 22:00:00 - - - - - - - - - - -
23.09.2020 21:00:00 24,0 18,6 7 4 25 13 WSW 1011,9 18 0 0,0
23.09.2020 20:00:00 24,8 18,7 11 6 27 15 SW 1011,4 18 9 -
23.09.2020 19:00:00 26,7 17,2 12 6 26 14 SSW 1011,2 20 31 0,0
23.09.2020 18:00:00 29,5 17,3 8 5 31 17 S 1011,0 18 60 0,0
23.09.2020 17:00:00 30,9 14,0 14 8 29 16 S 1011,2 20 60 0,0
23.09.2020 16:00:00 31,1 17,1 9 5 27 14 SSE 1011,7 20 60 0,0
23.09.2020 15:00:00 31,3 12,6 13 7 23 12 SSE 1012,3 19 60 0,0
23.09.2020 14:00:00 30,7 13,1 8 4 19 10 SSE 1012,8 19 22 -
23.09.2020 13:00:00 30,2 13,9 9 5 19 10 ESE 1013,2 20 54 0,0
23.09.2020 12:00:00 29,4 16,6 6 3 13 7 E 1013,6 19 60 0,0
23.09.2020 11:00:00 26,9 17,1 2 1 8 4 S 1013,7 19 28 0,0
23.09.2020 10:00:00 - - - - - - - - - - -
23.09.2020 09:00:00 20,2 16,5 8 5 11 6 WSW 1013,1 15 17 0,0
23.09.2020 08:00:00 19,2 16,2 8 4 10 6 WSW 1012,9 18 0 -
23.09.2020 07:00:00 19,1 16,1 8 4 11 6 SW 1012,8 20 0 0,0
23.09.2020 06:00:00 20,2 16,2 5 3 11 6 WSW 1012,7 20 0 0,0
23.09.2020 05:00:00 - - - - - - - - - - -
23.09.2020 04:00:00 20,4 15,0 5 3 8 4 WSW 1013,2 20 0 0,0
23.09.2020 03:00:00 - - - - - - - - - - -

tt = temperature
td = dewpoint
ff = wind speed
fx = gusts
dd = wind direction
ppp = reduced air pressure
vv = visibility
sd = sunshine duration
rr = precipitation

Next stations